This demonstration page uses our WeatherBlox Daily Observations layout. Learn more.

Left ArrowRight Arrow

44.8408, -93.29828

Hourly Observations for November 11, 2019

Temp ( °F °C ) Dew Point ( °F °C ) Humidity (%) Winds ( mph kmh ) Pressure ( in mb ) Visibility ( mi km ) Precip ( " mm )
12:53 am 00:53 Mostly Clear 17 -8.3 3 -16.1 54 54 N 14 22 30.47 1032 10 16 0.00 0.00
1:53 am 01:53 Clear 16 -8.9 1 -17.2 51 51 NNE 15 24 30.50 1033 10 16 0.00 0.00
2:53 am 02:53 Cloudy 16 -8.9 2 -16.7 54 54 N 13 20 30.51 1033 10 16 0.00 0.00
3:53 am 03:53 Cloudy 16 -8.9 2 -16.7 54 54 N 8 13 30.51 1033 10 16 0.00 0.00
4:53 am 04:53 Cloudy 17 -8.3 4 -15.6 56 56 N 7 11 30.54 1034 10 16 0.00 0.00
5:53 am 05:53 Cloudy with Light Snow 17 -8.3 7 -13.9 64 64 NNW 14 22 30.55 1035 7 11 0.00 0.00
6:53 am 06:53 Mostly Cloudy 14 -10 3 -16.1 61 61 NNW 16 26 30.56 1035 10 16 0.00 0.00
7:53 am 07:53 Mostly Cloudy 13 -10.6 2 -16.7 61 61 NNW 18 30 30.59 1036 10 16 0.00 0.00
8:53 am 08:53 Mostly Cloudy 14 -10 1 -17.2 56 56 NW 15 24 30.61 1037 10 16 0.00 0.00
9:53 am 09:53 Mostly Sunny 15 -9.4 -1 -18.3 49 49 NW 17 28 30.61 1037 10 16 0.00 0.00
10:53 am 10:53 Mostly Sunny 16 -8.9 -3 -19.4 43 43 NW 18 30 30.61 1037 10 16 0.00 0.00
11:53 am 11:53 Mostly Sunny 17 -8.3 -4 -20 39 39 NNW 18 30 30.59 1036 10 16 0.00 0.00
12:53 pm 12:53 Mostly Sunny 17 -8.3 -5 -20.6 37 37 NW 16 26 30.58 1035 10 16 0.00 0.00
1:53 pm 13:53 Mostly Cloudy 17 -8.3 -4 -20 39 39 NW 21 33 30.57 1035 10 16 0.00 0.00
2:53 pm 14:53 Mostly Cloudy 15 -9.4 -3 -19.4 44 44 NNW 18 30 30.58 1035 10 16 0.00 0.00
3:53 pm 15:53 Mostly Cloudy 15 -9.4 -5 -20.6 40 40 NNW 15 24 30.58 1036 10 16 0.00 0.00
4:53 pm 16:53 Partly Cloudy 13 -10.6 -4 -20 46 46 NNW 18 30 30.60 1036 10 16 0.00 0.00
5:53 pm 17:53 Mostly Clear 12 -11.1 -5 -20.6 46 46 NNW 18 30 30.62 1037 10 16 0.00 0.00
6:53 pm 18:53 Mostly Clear 11 -11.7 -4 -20 51 51 NNW 14 22 30.64 1038 10 16 0.00 0.00
7:53 pm 19:53 Mostly Clear 10 -12.2 -3 -19.4 55 55 NNW 15 24 30.65 1038 10 16 0.00 0.00
8:53 pm 20:53 Clear 10 -12.2 -4 -20 53 53 NNW 13 20 30.66 1038 10 16 0.00 0.00
9:53 pm 21:53 Clear 10 -12.2 -3 -19.4 55 55 NNW 10 17 30.66 1038 10 16 0.00 0.00
10:53 pm 22:53 Clear 9 -12.8 -3 -19.4 58 58 NNW 9 15 30.66 1038 10 16 0.00 0.00
11:53 pm 23:53 Clear 8 -13.3 -2 -18.9 63 63 NW 9 15 30.66 1038 10 16 0.00 0.00

Powered by AerisWeather